TimeMST,TemperatureF,Dew PointF,Humidity,Sea Level PressureIn,VisibilityMPH,Wind Direction,Wind SpeedMPH,Gust SpeedMPH,PrecipitationIn,Events,Conditions,WindDirDegrees,DateUTC
12:56 AM,51.1,32.0,48,29.92,10.0,Calm,Calm,-,N/A,,Clear,0,2011-11-18 07:56:00
1:56 AM,50.0,32.0,50,29.91,10.0,Calm,Calm,-,N/A,,Clear,0,2011-11-18 08:56:00
2:56 AM,48.0,32.0,54,29.91,10.0,South,3.5,-,N/A,,Clear,190,2011-11-18 09:56:00
3:56 AM,48.0,32.0,54,29.91,10.0,WNW,3.5,-,N/A,,Clear,300,2011-11-18 10:56:00
4:56 AM,48.0,30.9,52,29.91,10.0,Calm,Calm,-,N/A,,Clear,0,2011-11-18 11:56:00
5:55 AM,46.4,33.8,62,29.92,10.0,SSE,6.9,-,N/A,,Clear,160,2011-11-18 12:55:00
6:55 AM,46.4,32.0,57,29.94,10.0,Calm,Calm,-,N/A,,Partly Cloudy,0,2011-11-18 13:55:00
7:55 AM,50.0,33.8,54,29.95,10.0,Calm,Calm,-,N/A,,Partly Cloudy,0,2011-11-18 14:55:00
8:55 AM,55.4,33.8,44,29.94,10.0,Calm,Calm,-,N/A,,Partly Cloudy,0,2011-11-18 15:55:00
9:55 AM,60.8,33.8,36,29.93,10.0,East,4.6,-,N/A,,Scattered Clouds,80,2011-11-18 16:55:00
10:55 AM,64.4,30.2,28,29.91,10.0,Calm,Calm,-,N/A,,Mostly Cloudy,0,2011-11-18 17:55:00
11:55 AM,66.2,26.6,23,29.88,10.0,SW,4.6,-,N/A,,Mostly Cloudy,220,2011-11-18 18:55:00
12:55 PM,68.0,24.8,20,29.85,10.0,West,9.2,-,N/A,,Mostly Cloudy,280,2011-11-18 19:55:00
1:55 PM,68.0,26.6,21,29.83,10.0,SSW,10.4,-,N/A,,Mostly Cloudy,200,2011-11-18 20:55:00
2:55 PM,69.8,26.6,20,29.82,10.0,WSW,12.7,-,N/A,,Mostly Cloudy,240,2011-11-18 21:55:00
3:55 PM,68.0,21.2,17,29.82,10.0,West,11.5,19.6,N/A,,Mostly Cloudy,260,2011-11-18 22:55:00
4:55 PM,64.4,23.0,21,29.83,10.0,SW,9.2,17.3,N/A,,Mostly Cloudy,220,2011-11-18 23:55:00
5:55 PM,60.8,26.6,27,29.86,10.0,WSW,9.2,-,N/A,,Mostly Cloudy,240,2011-11-19 00:55:00
6:55 PM,57.2,26.6,31,29.88,10.0,SW,8.1,-,N/A,,Mostly Cloudy,230,2011-11-19 01:55:00
7:55 PM,60.8,26.6,27,29.87,10.0,SW,12.7,-,N/A,,Mostly Cloudy,220,2011-11-19 02:55:00
8:55 PM,57.2,28.4,33,29.87,10.0,Variable,4.6,-,N/A,,Mostly Cloudy,0,2011-11-19 03:55:00
9:55 PM,57.2,28.4,33,29.87,10.0,SW,9.2,-,N/A,,Scattered Clouds,230,2011-11-19 04:55:00
10:55 PM,55.4,28.4,36,29.86,10.0,Calm,Calm,-,N/A,,Mostly Cloudy,0,2011-11-19 05:55:00
11:56 PM,55.0,28.9,37,29.84,10.0,SW,5.8,-,N/A,,Clear,230,2011-11-19 06:56:00